KK4KTV-13 Weather Reports


time (UTC)temp
C
wind
direction
speed
KPH
gust
KPH
rain 1hr
cm
rain 24hr
cm
rain mn
cm
humidity
%
barometer
mb
20260903090109 21 262 0.0 0.0 0.00 0.00 0.00 99 1017.2
20260903085608 21 262 0.0 0.0 0.00 0.00 0.00 99 1017.2
20260903085103 21 262 0.0 0.0 0.00 0.00 0.00 99 1017.2
20260903084601 21 300 0.0 0.0 0.00 0.00 0.00 99 1017.1
20260903084056 21 261 0.0 0.0 0.00 0.00 0.00 99 1017.2
20260903083552 21 246 0.0 0.0 0.00 0.00 0.00 99 1017.2
20260903083052 21 255 0.0 0.0 0.00 0.00 0.00 99 1017.1
20260903082546 20 256 0.0 0.0 0.00 0.00 0.00 99 1017.0
20260903082041 20 256 0.0 0.0 0.00 0.00 0.00 99 1016.9
20260903081537 20 256 0.0 0.0 0.00 0.00 0.00 99 1017.1
20260903081032 20 256 0.0 0.0 0.00 0.00 0.00 99 1017.0
20260903080529 20 255 0.0 0.0 0.00 0.00 0.00 99 1017.0
20260903080025 20 255 0.0 0.0 0.00 0.00 0.00 99 1016.9
20260903075520 20 254 0.0 0.0 0.00 0.00 0.00 99 1017.0
20260903075015 20 254 0.0 0.0 0.00 0.00 0.00 99 1016.9
20260903074514 20 254 0.0 0.0 0.00 0.00 0.00 99 1016.8
20260903074009 20 254 0.0 0.0 0.00 0.00 0.00 99 1016.8
20260903073504 20 254 0.0 0.0 0.00 0.00 0.00 99 1016.9
20260903073000 21 254 0.0 0.0 0.00 0.00 0.00 99 1016.8
20260903072456 20 255 0.0 0.0 0.00 0.00 0.00 99 1016.9
20260903071952 20 255 0.0 0.0 0.00 0.00 0.00 99 1017.0
20260903071448 20 255 0.0 0.0 0.00 0.00 0.00 99 1016.9
20260903070943 20 255 0.0 0.0 0.00 0.00 0.00 99 1016.9
20260903070438 21 255 0.0 0.0 0.00 0.00 0.00 99 1016.9
20260903065932 20 255 0.0 0.0 0.00 0.00 0.00 99 1016.9
20260903065427 20 255 0.0 0.0 0.00 0.00 0.00 99 1016.8
20260903064926 21 255 0.0 0.0 0.00 0.00 0.00 99 1016.9
20260903064421 21 255 0.0 0.0 0.00 0.00 0.00 99 1016.9
20260903063917 21 255 0.0 0.0 0.00 0.00 0.00 99 1016.9
20260903063412 21 255 0.0 0.0 0.00 0.00 0.00 99 1017.0
20260903062908 21 255 0.0 0.0 0.00 0.00 0.00 99 1016.9
20260903062407 21 255 0.0 0.0 0.00 0.00 0.00 99 1016.9
20260903061903 21 255 0.0 0.0 0.00 0.00 0.00 99 1016.6
20260903061402 21 254 0.0 0.0 0.00 0.00 0.00 99 1016.9
20260903060858 21 254 0.0 0.0 0.00 0.00 0.00 99 1016.7
20260903060353 21 254 0.0 0.0 0.00 0.00 0.00 99 1016.7
20260903055851 21 255 0.0 0.0 0.00 0.00 0.00 99 1016.9
20260903055349 21 255 0.0 0.0 0.00 0.00 0.00 99 1016.8
20260903054844 21 255 0.0 0.0 0.00 0.00 0.00 99 1017.1
20260903054343 21 255 0.0 0.0 0.00 0.00 0.00 99 1017.0
20260903053840 21 255 0.0 0.0 0.00 0.00 0.00 99 1017.0
20260903053335 21 253 0.0 0.0 0.00 0.00 0.00 99 1016.9
20260903052831 21 253 0.0 0.0 0.00 0.00 0.00 99 1017.0
20260903052326 21 253 0.0 0.0 0.00 0.00 0.00 99 1016.9
20260903051822 22 253 0.0 0.0 0.00 0.00 0.00 99 1017.1
20260903051317 22 253 0.0 0.0 0.00 0.00 0.00 99 1017.0
20260903050812 22 253 0.0 0.0 0.00 0.00 0.00 99 1017.1
20260903050312 21 253 0.0 0.0 0.00 0.00 0.00 99 1017.0
20260903045806 21 253 0.0 0.0 0.00 0.00 0.00 99 1017.1
20260903045306 21 253 0.0 0.0 0.00 0.00 0.00 99 1017.0
20260903044758 21 254 0.0 0.0 0.00 0.00 0.00 99 1016.8
20260903044253 21 253 0.0 0.0 0.00 0.00 0.00 99 1016.9
20260903043750 21 253 0.0 0.0 0.00 0.00 0.00 99 1017.1
20260903043250 22 253 0.0 0.0 0.00 0.00 0.00 99 1017.0
20260903042749 21 253 0.0 0.0 0.00 0.00 0.00 99 1017.1
20260903042245 21 253 0.0 0.0 0.00 0.00 0.00 98 1016.8
20260903041741 21 253 0.0 0.0 0.00 0.00 0.00 98 1017.0
20260903041237 21 253 0.0 0.0 0.00 0.00 0.00 98 1017.0
20260903040736 21 253 0.0 0.0 0.00 0.00 0.00 98 1017.0
20260903040231 22 253 0.0 0.0 0.00 0.00 0.00 98 1017.0
20260903035727 22 253 0.0 0.0 0.00 0.00 0.00 98 1017.0
20260903035223 21 253 0.0 0.0 0.00 0.00 0.00 98 1017.1
20260903034722 22 253 0.0 0.0 0.00 0.00 0.00 98 1017.2
20260903034218 22 253 0.0 0.0 0.00 0.00 0.00 98 1017.2
20260903033714 22 253 0.0 0.0 0.00 0.00 0.00 98 1017.1
20260903033214 22 253 0.0 0.0 0.00 0.00 0.00 97 1017.1
20260903032708 22 253 0.0 0.0 0.00 0.00 0.00 98 1017.2
20260903032204 22 253 0.0 0.0 0.00 0.00 0.00 97 1017.1
20260903031659 22 253 0.0 0.0 0.00 0.00 0.00 97 1017.1
20260903031153 22 253 0.0 0.0 0.00 0.00 0.00 97 1017.1
20260903030649 22 253 0.0 0.0 0.00 0.00 0.00 97 1017.1
20260903030144 22 253 0.0 0.0 0.00 0.00 0.00 97 1017.1
20260903025640 22 253 0.0 0.0 0.00 0.00 0.00 97 1017.4
20260903025135 22 253 0.0 0.0 0.00 0.00 0.00 96 1017.1
20260903024630 22 253 0.0 0.0 0.00 0.00 0.00 97 1017.3
20260903024124 22 253 0.0 0.0 0.00 0.00 0.00 97 1017.2
20260903023620 22 253 0.0 0.0 0.00 0.00 0.00 96 1017.1
20260903023120 22 253 0.0 0.0 0.00 0.00 0.00 96 1017.3
20260903022615 22 253 0.0 0.0 0.00 0.00 0.00 96 1017.3
20260903022114 23 253 0.0 0.0 0.00 0.00 0.00 96 1017.1
20260903021608 23 253 0.0 0.0 0.00 0.00 0.00 96 1017.4
20260903021103 23 253 0.0 0.0 0.00 0.00 0.00 95 1017.3
20260903020558 23 253 0.0 0.0 0.00 0.00 0.00 96 1017.3
20260903020053 23 253 0.0 0.0 0.00 0.00 0.00 95 1017.2
20260903015548 23 253 0.0 0.0 0.00 0.00 0.00 95 1017.1
20260903015038 23 253 0.0 0.0 0.00 0.00 0.00 95 1017.2
20260903014537 23 253 0.0 0.0 0.00 0.00 0.00 94 1017.1
20260903014032 23 253 0.0 0.0 0.00 0.00 0.00 94 1017.2
20260903013531 23 253 0.0 0.0 0.00 0.00 0.00 93 1017.0
20260903013026 24 252 0.0 1.6 0.00 0.00 0.00 93 1016.9
20260903012520 23 254 0.0 0.0 0.00 0.00 0.00 94 1017.0
20260903012019 23 254 0.0 0.0 0.00 0.00 0.00 94 1016.7
20260903011519 24 254 0.0 0.0 0.00 0.00 0.00 94 1016.7
20260903011014 24 253 0.0 0.0 0.00 0.00 0.00 93 1016.7
20260903010509 24 254 0.0 0.0 0.00 0.00 0.00 92 1016.6
20260903010007 25 254 0.0 0.0 0.00 0.00 0.00 92 1016.7
20260903005502 25 249 0.0 0.0 0.00 0.00 0.00 91 1016.4
20260903004958 25 249 0.0 0.0 0.00 0.00 0.00 90 1016.6
20260903004458 25 249 0.0 0.0 0.00 0.00 0.00 89 1016.6
20260903003954 25 249 0.0 0.0 0.00 0.00 0.00 90 1016.4
20260903003449 26 249 0.0 0.0 0.00 0.00 0.00 90 1016.4
20260903002944 26 249 0.0 0.0 0.00 0.00 0.00 88 1016.4
20260903002444 26 249 0.0 0.0 0.00 0.00 0.00 88 1016.6
20260903001944 27 249 0.0 0.0 0.00 0.00 0.00 87 1016.4
20260903001444 27 249 0.0 0.0 0.00 0.00 0.00 86 1016.3
20260903000938 27 249 0.0 0.0 0.00 0.00 0.00 84 1016.4
20260903000434 28 249 0.0 0.0 0.00 0.00 0.00 83 1016.4
20260902235931 29 249 0.0 0.0 0.00 0.00 0.00 81 1016.3
20260902235427 30 248 0.0 0.0 0.00 0.00 0.00 77 1016.4
20260902234926 31 248 0.0 0.0 0.00 0.00 0.00 72 1016.1
20260902234421 31 248 0.0 0.0 0.00 0.00 0.00 73 1016.3
20260902233920 31 248 0.0 0.0 0.00 0.00 0.00 74 1016.5
20260902233414 31 248 0.0 0.0 0.00 0.00 0.00 72 1016.6
20260902232914 31 248 0.0 1.6 0.00 0.00 0.00 74 1016.5
20260902232403 31 246 0.0 1.6 0.00 0.00 0.00 71 1016.4
20260902231857 32 280 1.6 1.6 0.00 0.00 0.00 65 1016.4
20260902231352 35 284 0.0 0.0 0.00 0.00 0.00 62 1016.5
20260902230847 34 285 0.0 0.0 0.00 0.00 0.00 63 1016.5
20260902230346 33 225 0.0 1.6 0.00 0.00 0.00 60 1016.5
20260902225840 36 317 1.6 1.6 0.00 0.00 0.00 57 1016.4
20260902225336 36 317 0.0 0.0 0.00 0.00 0.00 56 1016.6
20260902224834 36 318 0.0 0.0 0.00 0.00 0.00 55 1016.4
20260902224329 37 318 0.0 0.0 0.00 0.00 0.00 51 1016.6
20260902223825 36 318 0.0 0.0 0.00 0.00 0.00 51 1016.5
20260902223320 36 318 0.0 1.6 0.00 0.00 0.00 52 1016.5
20260902222819 36 318 0.0 0.0 0.00 0.00 0.00 54 1016.5
20260902222312 36 300 0.0 0.0 0.00 0.00 0.00 47 1016.5
20260902221806 36 300 0.0 1.6 0.00 0.00 0.00 45 1016.7
20260902221306 35 316 0.0 1.6 0.00 0.00 0.00 49 1016.5
20260902220801 36 299 1.6 3.2 0.00 0.00 0.00 49 1016.8
20260902220255 35 295 0.0 1.6 0.00 0.00 0.00 54 1016.7
20260902215751 36 288 1.6 3.2 0.00 0.00 0.00 47 1016.7
20260902215246 36 304 0.0 0.0 0.00 0.00 0.00 49 1016.9
20260902214742 36 290 1.6 3.2 0.00 0.00 0.00 50 1016.6
20260902214240 36 316 1.6 3.2 0.00 0.00 0.00 47 1016.8
20260902213736 36 265 0.0 0.0 0.00 0.00 0.00 42 1016.7
20260902213236 35 270 3.2 3.2 0.00 0.00 0.00 47 1016.7
20260902212735 36 190 3.2 3.2 0.00 0.00 0.00 43 1016.8
20260902212232 35 329 0.0 1.6 0.00 0.00 0.00 49 1016.8
20260902211728 37 318 1.6 3.2 0.00 0.00 0.00 44 1016.8
20260902211223 37 287 0.0 0.0 0.00 0.00 0.00 48 1017.0
20260902210718 36 287 0.0 3.2 0.00 0.00 0.00 48 1016.9
20260902210214 36 333 3.2 3.2 0.00 0.00 0.00 41 1016.9
20260902205711 35 289 0.0 3.2 0.00 0.00 0.00 48 1016.9
20260902205207 35 303 3.2 4.8 0.00 0.00 0.00 53 1016.9
20260902204702 36 284 1.6 4.8 0.00 0.00 0.00 47 1017.0
20260902204156 36 271 0.0 1.6 0.00 0.00 0.00 43 1017.0
20260902203652 35 197 1.6 4.8 0.00 0.00 0.00 43 1017.1
20260902203151 35 268 3.2 4.8 0.00 0.00 0.00 43 1017.1
20260902202647 35 251 4.8 9.7 0.00 0.00 0.00 44 1017.1
20260902202143 36 299 1.6 3.2 0.00 0.00 0.00 49 1017.2
20260902201639 36 296 3.2 4.8 0.00 0.00 0.00 41 1017.2
20260902201138 36 278 0.0 4.8 0.00 0.00 0.00 43 1017.3
20260902200633 36 224 1.6 3.2 0.00 0.00 0.00 44 1017.2
20260902200129 35 295 0.0 1.6 0.00 0.00 0.00 44 1017.4
20260902195620 35 19 1.6 3.2 0.00 0.00 0.00 49 1017.5
20260902195119 35 265 0.0 0.0 0.00 0.00 0.00 48 1017.4
20260902194618 35 306 0.0 0.0 0.00 0.00 0.00 51 1017.4
20260902194114 35 319 0.0 0.0 0.00 0.00 0.00 48 1017.5
20260902193610 35 301 0.0 0.0 0.00 0.00 0.00 45 1017.5
20260902193109 35 252 4.8 4.8 0.00 0.00 0.00 45 1017.7
20260902192607 36 256 6.4 6.4 0.00 0.00 0.00 44 1017.6
20260902192106 36 266 0.0 4.8 0.00 0.00 0.00 43 1017.9
20260902191601 36 270 0.0 3.2 0.00 0.00 0.00 42 1017.9
20260902191055 36 271 0.0 3.2 0.00 0.00 0.00 51 1018.1
20260902190551 35 230 1.6 1.6 0.00 0.00 0.00 44 1018.1
20260902190046 35 295 1.6 4.8 0.00 0.00 0.00 56 1017.7
20260902185542 33 306 0.0 3.2 0.00 0.00 0.00 49 1018.1
20260902185038 34 271 3.2 4.8 0.00 0.00 0.00 48 1018.2
20260902184532 33 264 0.0 1.6 0.00 0.00 0.00 50 1018.4
20260902184028 35 231 3.2 4.8 0.00 0.00 0.00 49 1018.1
20260902183524 33 300 0.0 1.6 0.00 0.00 0.00 53 1018.3
20260902183020 33 308 3.2 3.2 0.00 0.00 0.00 51 1018.2
20260902182516 32 295 0.0 3.2 0.00 0.00 0.00 59 1018.4
20260902182012 32 281 1.6 6.4 0.00 0.00 0.00 55 1018.4
20260902181509 33 297 3.2 9.7 0.00 0.00 0.00 53 1018.3
20260902181003 32 262 1.6 3.2 0.00 0.00 0.00 55 1018.3
20260902180502 33 177 6.4 6.4 0.00 0.00 0.00 48 1018.4
20260902175959 34 277 0.0 3.2 0.00 0.00 0.00 51 1018.4
20260902175458 35 343 3.2 4.8 0.00 0.00 0.00 56 1018.4
20260902174954 35 289 0.0 1.6 0.00 0.00 0.00 54 1018.4
20260902174451 35 231 3.2 4.8 0.00 0.00 0.00 49 1018.6
20260902173946 34 231 1.6 4.8 0.00 0.00 0.00 53 1018.8
20260902173445 35 207 3.2 4.8 0.00 0.00 0.00 52 1018.8
20260902172941 34 307 0.0 1.6 0.00 0.00 0.00 47 1018.8
20260902172440 34 271 1.6 4.8 0.00 0.00 0.00 56 1019.0
20260902171935 33 174 4.8 6.4 0.00 0.00 0.00 53 1019.1
20260902171431 33 257 3.2 6.4 0.00 0.00 0.00 54 1019.1
20260902170927 33 257 3.2 3.2 0.00 0.00 0.00 52 1019.2
20260902170422 33 285 1.6 3.2 0.00 0.00 0.00 55 1019.2
20260902165918 33 259 0.0 0.0 0.00 0.00 0.00 55 1019.3
20260902165417 33 279 0.0 3.2 0.00 0.00 0.00 60 1019.3
20260902164911 34 255 1.6 1.6 0.00 0.00 0.00 60 1019.2
20260902164406 34 219 1.6 3.2 0.00 0.00 0.00 57 1019.5
20260902163905 34 312 0.0 0.0 0.00 0.00 0.00 52 1019.5
20260902163400 33 254 1.6 4.8 0.00 0.00 0.00 56 1019.5
20260902162858 33 263 3.2 9.7 0.00 0.00 0.00 58 1019.7
20260902162354 33 232 4.8 4.8 0.00 0.00 0.00 55 1019.9
20260902161854 33 205 3.2 4.8 0.00 0.00 0.00 57 1019.8
20260902161349 34 283 0.0 3.2 0.00 0.00 0.00 58 1019.8
20260902160845 33 301 0.0 1.6 0.00 0.00 0.00 54 1019.8
20260902160340 33 282 0.0 3.2 0.00 0.00 0.00 63 1019.7
20260902155838 33 259 1.6 6.4 0.00 0.00 0.00 63 1019.9
20260902155337 33 286 0.0 0.0 0.00 0.00 0.00 57 1019.9
20260902154832 32 270 1.6 3.2 0.00 0.00 0.00 58 1020.0
20260902154328 32 198 4.8 4.8 0.00 0.00 0.00 63 1020.0
20260902153827 32 253 3.2 3.2 0.00 0.00 0.00 62 1019.9
20260902153326 32 253 1.6 4.8 0.00 0.00 0.00 65 1019.8
20260902152822 32 186 3.2 4.8 0.00 0.00 0.00 60 1020.0
20260902152318 32 262 1.6 3.2 0.00 0.00 0.00 64 1019.9
20260902151813 32 192 3.2 4.8 0.00 0.00 0.00 62 1019.9
20260902151308 32 270 1.6 6.4 0.00 0.00 0.00 64 1020.0
20260902150803 31 204 1.6 3.2 0.00 0.00 0.00 67 1019.7
20260902150300 31 226 3.2 4.8 0.00 0.00 0.00 64 1019.7
20260902145759 31 293 1.6 4.8 0.00 0.00 0.00 65 1019.9
20260902145255 30 254 1.6 4.8 0.00 0.00 0.00 65 1019.8
20260902144750 30 269 3.2 3.2 0.00 0.00 0.00 68 1019.8
20260902144246 30 248 3.2 3.2 0.00 0.00 0.00 67 1019.5
20260902143746 30 272 3.2 3.2 0.00 0.00 0.00 71 1019.6
20260902143241 30 278 0.0 3.2 0.00 0.00 0.00 74 1019.7
20260902142736 30 269 0.0 3.2 0.00 0.00 0.00 71 1019.7
20260902142232 30 248 1.6 1.6 0.00 0.00 0.00 71 1019.7
20260902141732 30 195 3.2 4.8 0.00 0.00 0.00 69 1019.7
20260902141228 29 228 0.0 3.2 0.00 0.00 0.00 74 1019.6
20260902140723 29 228 1.6 1.6 0.00 0.00 0.00 73 1019.6
20260902140218 28 261 1.6 1.6 0.00 0.00 0.00 77 1019.6
20260902135717 28 252 0.0 0.0 0.00 0.00 0.00 75 1019.6
20260902135213 29 250 0.0 0.0 0.00 0.00 0.00 75 1019.7
20260902134712 28 255 0.0 0.0 0.00 0.00 0.00 73 1019.9
20260902134208 28 264 0.0 1.6 0.00 0.00 0.00 74 1019.8
20260902133703 28 274 0.0 0.0 0.00 0.00 0.00 75 1019.8
20260902133202 28 287 0.0 0.0 0.00 0.00 0.00 74 1019.9
20260902132652 27 287 0.0 0.0 0.00 0.00 0.00 78 1020.0
20260902132148 27 210 0.0 1.6 0.00 0.00 0.00 78 1019.7
20260902131643 27 33 0.0 0.0 0.00 0.00 0.00 77 1019.7
20260902131139 27 38 0.0 0.0 0.00 0.00 0.00 78 1019.7
20260902130635 26 38 0.0 0.0 0.00 0.00 0.00 82 1019.7
20260902130130 26 41 0.0 0.0 0.00 0.00 0.00 83 1019.5
20260902125625 25 74 0.0 0.0 0.00 0.00 0.00 84 1019.8
20260902125125 25 68 0.0 0.0 0.00 0.00 0.00 85 1019.7
20260902124623 25 36 0.0 0.0 0.00 0.00 0.00 85 1019.6
20260902124122 23 38 0.0 0.0 0.00 0.00 0.00 89 1019.8
20260902123618 22 38 0.0 0.0 0.00 0.00 0.00 92 1019.5
20260902123113 22 36 0.0 0.0 0.00 0.00 0.00 94 1019.6
20260902122612 22 38 0.0 0.0 0.00 0.00 0.00 97 1019.7
20260902122108 21 39 0.0 0.0 0.00 0.00 0.00 98 1019.7
20260902121603 21 72 0.0 0.0 0.00 0.00 0.00 99 1019.6
20260902121057 21 72 0.0 0.0 0.00 0.00 0.00 99 1019.6
20260902120554 21 72 0.0 0.0 0.00 0.00 0.00 99 1019.7
20260902120050 21 72 0.0 0.0 0.00 0.00 0.00 99 1019.6
20260902115545 21 72 0.0 0.0 0.00 0.00 0.00 99 1019.3
20260902115041 21 72 0.0 0.0 0.00 0.00 0.00 99 1019.4
20260902114536 20 72 0.0 0.0 0.00 0.00 0.00 99 1019.1
20260902114031 20 72 0.0 0.0 0.00 0.00 0.00 99 1019.1
20260902113527 19 72 0.0 0.0 0.00 0.00 0.00 99 1019.0
20260902113021 19 72 0.0 0.0 0.00 0.00 0.00 99 1019.0
20260902112517 19 72 0.0 0.0 0.00 0.00 0.00 99 1018.9
20260902112014 19 72 0.0 0.0 0.00 0.00 0.00 99 1018.9
20260902111510 19 73 0.0 0.0 0.00 0.00 0.00 99 1018.9
20260902111005 20 73 0.0 0.0 0.00 0.00 0.00 99 1018.8
20260902110501 20 73 0.0 0.0 0.00 0.00 0.00 99 1018.7
20260902105955 18 4 0.0 0.0 0.00 0.00 0.00 99 1018.6
20260902105450 18 4 0.0 0.0 0.00 0.00 0.00 99 1018.6
20260902104945 18 4 0.0 0.0 0.00 0.00 0.00 99 1018.6
20260902104441 19 4 0.0 0.0 0.00 0.00 0.00 99 1018.6
20260902103940 19 4 0.0 0.0 0.00 0.00 0.00 99 1018.5
20260902103436 19 4 0.0 0.0 0.00 0.00 0.00 99 1018.5
20260902102930 19 4 0.0 0.0 0.00 0.00 0.00 99 1018.6
20260902102428 19 4 0.0 0.0 0.00 0.00 0.00 99 1018.3
20260902101924 19 4 0.0 0.0 0.00 0.00 0.00 99 1018.5
20260902101418 19 4 0.0 0.0 0.00 0.00 0.00 99 1018.5
20260902100917 19 4 0.0 0.0 0.00 0.00 0.00 99 1018.3
20260902100412 19 4 0.0 0.0 0.00 0.00 0.00 99 1018.4
20260902095906 19 4 0.0 0.0 0.00 0.00 0.00 99 1018.3
20260902095401 19 4 0.0 0.0 0.00 0.00 0.00 99 1018.6
20260902094901 19 4 0.0 0.0 0.00 0.00 0.00 99 1018.4
20260902094357 20 4 0.0 0.0 0.00 0.00 0.00 99 1018.4
20260902093857 20 4 0.0 0.0 0.00 0.00 0.00 99 1018.4
20260902093352 19 4 0.0 0.0 0.00 0.00 0.00 99 1018.2
20260902092850 20 4 0.0 0.0 0.00 0.00 0.00 99 1018.3
20260902092346 20 4 0.0 0.0 0.00 0.00 0.00 99 1018.3
20260902091840 20 4 0.0 0.0 0.00 0.00 0.00 99 1018.3
20260902091336 20 4 0.0 0.0 0.00 0.00 0.00 99 1018.1
20260902090833 20 4 0.0 0.0 0.00 0.00 0.00 99 1018.3